Cheboygan, MI

8:53 PM EDT on July 25, 2017 (GMT -0400)
Cheboygan

Weather History for KSLH - May, 2013

Change the Weather History Date:

Saturday, May 25, 2013

  Actual Average (KMCD) Record (KMCD)
Temperature  
Mean Temperature 48 °F -  
Max Temperature 62 °F 57 °F 74 °F (1978)
Min Temperature 33 °F 41 °F 32 °F (1992)
Degree Days  
Heating Degree Days 18    
Moisture  
Dew Point 34 °F    
Average Humidity 63    
Maximum Humidity 94    
Minimum Humidity 29    
Precipitation  
Precipitation 0.00 in - - ()
Sea Level Pressure  
Sea Level Pressure 30.38 in    
Wind  
Wind Speed 3 mph (NNW)    
Max Wind Speed 9 mph    
Max Gust Speed -    
Visibility 10 miles    
Events      
Averages and records for this station are not official NWS values.
T = Trace of Precipitation, MM = Missing Value Source: NWS Daily Summary

Daily Weather History Graph

Daily Weather History Graph

Search for Another Location

Airport or City:

Trip Planner

Search our weather history database for the weather conditions in past years. The results will help you decide how hot, cold, wet, or windy it might be!

Date:

Astronomy

May. 25, 2013 Rise Set
Actual Time 5:56 AM EDT 9:13 PM EDT
Civil Twilight 5:20 AM EDT 9:50 PM EDT
Nautical Twilight 4:33 AM EDT 10:37 PM EDT
Astronomical Twilight 3:35 AM EDT 11:36 PM EDT
Moon 10:00 PM EDT (5/25) 6:24 AM EDT (5/25)
Length of Visible Light 16h 29m
Length of Day
15h 16m
Full, 100% of the Moon is Illuminated
May 25
Full
May 31
Last Quarter
Jun 8
New
Jun 16
First Quarter
Jun 23
Full

Hourly Weather History & Observations

Time (EDT) Temp. Windchill Dew Point Humidity Pressure Visibility Wind Dir Wind Speed Gust Speed Precip Events Conditions
12:15 AM 37.9 °F - 34.2 °F 86% 30.35 in 10.0 mi Calm Calm - N/A   Clear
12:35 AM 35.6 °F 32.8 °F 32.0 °F 87% 30.35 in 10.0 mi West 3.5 mph - N/A   Clear
12:55 AM 38.1 °F 33.7 °F 34.2 °F 86% 30.36 in 10.0 mi WSW 5.8 mph - N/A   Clear
1:15 AM 37.6 °F - 33.3 °F 84% 30.36 in 10.0 mi Calm Calm - N/A   Clear
1:36 AM 37.0 °F 33.3 °F 34.0 °F 89% 30.36 in 10.0 mi WSW 4.6 mph - N/A   Clear
1:55 AM 36.5 °F 33.9 °F 34.0 °F 91% 30.36 in 10.0 mi West 3.5 mph - N/A   Clear
2:15 AM 36.3 °F 32.5 °F 33.6 °F 90% 30.36 in 10.0 mi WNW 4.6 mph - N/A   Clear
2:36 AM 37.0 °F - 34.3 °F 90% 30.35 in 10.0 mi Calm Calm - N/A   Clear
2:55 AM 36.7 °F 32.9 °F 33.6 °F 89% 30.36 in 10.0 mi West 4.6 mph - N/A   Clear
3:15 AM 36.9 °F - 33.6 °F 88% 30.36 in 10.0 mi Calm Calm - N/A   Clear
3:35 AM 36.5 °F - 33.8 °F 90% 30.36 in 10.0 mi Calm Calm - N/A   Clear
3:55 AM 34.9 °F - 32.0 °F 89% 30.36 in 10.0 mi Calm Calm - N/A   Clear
4:15 AM 34.3 °F 31.4 °F 32.0 °F 91% 30.36 in 10.0 mi NW 3.5 mph - N/A   Clear
4:35 AM 34.9 °F - 32.4 °F 91% 30.36 in 10.0 mi Calm Calm - N/A   Clear
4:55 AM 36.1 °F - 32.0 °F 85% 30.37 in 10.0 mi Calm Calm - N/A   Clear
5:15 AM 33.8 °F - 31.1 °F 90% 30.37 in 10.0 mi Calm Calm - N/A   Clear
5:35 AM 34.3 °F - 31.6 °F 90% 30.38 in 10.0 mi Calm Calm - N/A   Clear
5:55 AM 33.4 °F - 32.0 °F 94% 30.38 in 10.0 mi Calm Calm - N/A   Clear
6:15 AM 33.3 °F - 31.8 °F 94% 30.39 in 10.0 mi Calm Calm - N/A   Clear
6:35 AM 34.9 °F - 32.2 °F 90% 30.39 in 10.0 mi Calm Calm - N/A   Clear
6:55 AM 36.0 °F 33.3 °F 33.3 °F 90% 30.39 in 10.0 mi WSW 3.5 mph - N/A   Clear
7:16 AM 37.6 °F - 34.7 °F 89% 30.40 in 10.0 mi Calm Calm - N/A   Clear
7:35 AM 41.4 °F - 36.9 °F 84% 30.40 in 10.0 mi Calm Calm - N/A   Clear
7:55 AM 43.3 °F 41.7 °F 37.4 °F 80% 30.41 in 10.0 mi ENE 3.5 mph - N/A   Clear
8:15 AM 45.1 °F 41.4 °F 38.8 °F 79% 30.42 in 10.0 mi ENE 6.9 mph - N/A   Clear
8:25 AM 45.5 °F 40.8 °F 38.3 °F 76% 30.42 in 10.0 mi ENE 9.2 mph - N/A   Clear
8:57 AM 46.4 °F 43.5 °F 37.4 °F 71% 30.44 in 10.0 mi NE 5.8 mph - N/A   Clear
9:18 AM 48.2 °F - 37.4 °F 66% 30.45 in 10.0 mi NE 6.9 mph - N/A   Clear
9:38 AM 48.2 °F - 35.6 °F 62% 30.45 in 10.0 mi NE 5.8 mph - N/A   Clear
9:57 AM 48.2 °F - 35.6 °F 62% 30.46 in 10.0 mi NE 5.8 mph - N/A   Clear
10:02 AM 48.6 °F - 36.7 °F 64% 30.46 in 10.0 mi ENE 5.8 mph - N/A   Clear
10:15 AM 49.5 °F - 37.2 °F 63% 30.45 in 10.0 mi NNE 4.6 mph - N/A   Clear
10:35 AM 50.9 °F - 38.1 °F 62% 30.45 in 10.0 mi NE 5.8 mph - N/A   Clear
10:55 AM 50.4 °F - 37.0 °F 60% 30.44 in 10.0 mi NE 6.9 mph - N/A   Clear
11:14 AM 50.2 °F - 36.1 °F 59% 30.44 in 10.0 mi NE 8.1 mph - N/A   Clear
11:35 AM 50.2 °F - 36.0 °F 58% 30.43 in 10.0 mi NE 8.1 mph - N/A   Clear
11:55 AM 50.7 °F - 36.3 °F 58% 30.42 in 10.0 mi NE 5.8 mph - N/A   Clear
12:15 PM 52.5 °F - 35.8 °F 53% 30.42 in 10.0 mi NNE 3.5 mph - N/A   Clear
12:35 PM 54.3 °F - 30.9 °F 41% 30.42 in 10.0 mi Calm Calm - N/A   Clear
12:55 PM 55.8 °F - 33.6 °F 43% 30.41 in 10.0 mi ESE 3.5 mph - N/A   Clear
1:15 PM 56.5 °F - 31.3 °F 38% 30.40 in 10.0 mi NNW 5.8 mph - N/A   Clear
1:35 PM 56.8 °F - 31.8 °F 39% 30.39 in 10.0 mi North 4.6 mph - N/A   Clear
1:55 PM 57.9 °F - 32.9 °F 39% 30.39 in 10.0 mi North 4.6 mph - N/A   Clear
2:15 PM 58.5 °F - 30.9 °F 35% 30.39 in 10.0 mi Calm Calm - N/A   Clear
2:35 PM 59.9 °F - 32.4 °F 35% 30.38 in 10.0 mi NW 5.8 mph - N/A   Clear
2:55 PM 59.9 °F - 32.9 °F 36% 30.38 in 10.0 mi NNW 3.5 mph - N/A   Clear
3:15 PM 60.6 °F - 32.4 °F 35% 30.38 in 10.0 mi WNW 8.1 mph - N/A   Clear
3:35 PM 61.2 °F - 29.3 °F 30% 30.37 in 10.0 mi NW 8.1 mph - N/A   Clear
3:55 PM 61.3 °F - 32.4 °F 34% 30.37 in 10.0 mi NNW 6.9 mph - N/A   Clear
4:15 PM 61.0 °F - 32.0 °F 34% 30.37 in 10.0 mi North 8.1 mph - N/A   Clear
4:36 PM 59.9 °F - 32.9 °F 36% 30.36 in 10.0 mi North 6.9 mph - N/A   Clear
4:55 PM 60.6 °F - 33.1 °F 36% 30.36 in 10.0 mi North 5.8 mph - N/A   Clear
5:15 PM 61.3 °F - 34.7 °F 37% 30.35 in 10.0 mi North 5.8 mph - N/A   Clear
5:36 PM 61.9 °F - 30.9 °F 31% 30.35 in 10.0 mi North 9.2 mph - N/A   Clear
5:55 PM 62.2 °F - 29.8 °F 29% 30.35 in 10.0 mi NW 6.9 mph - N/A   Clear
6:15 PM 61.7 °F - 30.9 °F 31% 30.35 in 10.0 mi North 9.2 mph - N/A   Clear
6:35 PM 60.8 °F - 30.9 °F 32% 30.34 in 10.0 mi North 6.9 mph - N/A   Clear
6:55 PM 60.3 °F - 33.6 °F 37% 30.34 in 10.0 mi North 5.8 mph - N/A   Clear
7:15 PM 60.6 °F - 34.2 °F 37% 30.33 in 10.0 mi North 5.8 mph - N/A   Clear
7:35 PM 60.4 °F - 33.6 °F 37% 30.33 in 10.0 mi NW 3.5 mph - N/A   Clear
7:55 PM 59.9 °F - 31.6 °F 34% 30.33 in 10.0 mi NW 5.8 mph - N/A   Clear
8:15 PM 58.5 °F - 31.6 °F 36% 30.32 in 10.0 mi NW 5.8 mph - N/A   Clear
8:35 PM 56.7 °F - 32.5 °F 40% 30.32 in 10.0 mi NW 6.9 mph - N/A   Clear
8:55 PM 53.1 °F - 39.2 °F 59% 30.32 in 10.0 mi Calm Calm - N/A   Clear
9:15 PM 49.6 °F - 40.1 °F 70% 30.32 in 10.0 mi North 3.5 mph - N/A   Clear
9:35 PM 47.5 °F - 40.3 °F 76% 30.33 in 10.0 mi North 3.5 mph - N/A   Clear
9:55 PM 46.6 °F - 40.1 °F 78% 30.33 in 10.0 mi Calm Calm - N/A   Clear
10:15 PM 47.3 °F - 38.1 °F 70% 30.33 in 10.0 mi West 4.6 mph - N/A   Clear
10:33 PM 45.5 °F 44.2 °F 37.0 °F 72% 30.34 in 10.0 mi NW 3.5 mph - N/A   Clear
10:55 PM 44.1 °F 41.5 °F 36.7 °F 75% 30.34 in 10.0 mi WNW 4.6 mph - N/A   Clear
11:15 PM 44.8 °F 43.3 °F 35.6 °F 70% 30.34 in 10.0 mi WNW 3.5 mph - N/A   Clear
11:26 PM 43.9 °F 41.3 °F 35.6 °F 73% 30.34 in 10.0 mi WNW 4.6 mph - N/A   Clear
11:55 PM 43.9 °F 41.3 °F 33.8 °F 68% 30.33 in 10.0 mi WNW 4.6 mph - N/A   Clear